Content
SEND FEEDBACK

Daily
Averages
Monthly
Summary
United States of America

ANN ARBOR, MICHIGAN


Home > North America > United States > Michigan
Elevation: 759 feet     Latitude: 42 17N     Longitude: 083 43W

WEATHER
 
SELECT A DAY
Number of Records: 203,923;   Date Range: 1/1/95 - 8/30/14
 
SHARE

PRINT THIS DATA

[ ← Previous Day ]
WEATHER ALMANAC - FEBRUARY 28, 2013
[ Next Day → ]
[ °C ]   °F
Weather ElementAverageHighLow
Temperature33.7 °F37 °F (1:53 pm)30 °F (11:53 pm)
Dewpoint29.1 °F32 °F (2:53 am)24.1 °F (11:53 pm)
Humidity83.7 %96 % (2:53 am)70 % (1:53 pm)
Barometer29.74 in29.97 in (11:53 pm)29.55 in (3:49 am)
Wind Speed10.5 mph18.4 mph (1:53 pm)
Wind Gust25.3 mph (1:53 pm)
Weather ElementAverage
Visibility7.7 mi
Wind DirectionWNW (283 °)

Weather ElementTotal
Precipitation---
Heating Degree Days31.5 (Base 65)
Averaged from 40 records on February 28, 2013
WEATHER CONDITIONS BREAKOUT
WIND DIRECTION BREAKOUT
WEATHER BY HOUR - FEBRUARY 28, 2013
[ °C ]   °F
Local TimeTemperatureDewpointHumidityBarometerVisibilityWind DirectionWind SpeedGust SpeedPrecipitationEventsConditions
1:53 AM33.1 °F30.9 °F92 %29.57 in6.0 miWSW (240°)5.8 mphOvercast
2:53 AM33.1 °F32.0 °F96 %29.57 in4.0 miWest (270°)5.8 mphOvercast
3:49 AM33.8 °F32.0 °F93 %29.55 in4.0 miWNW (300°)4.6 mph0.00 inOvercast
3:53 AM33.1 °F32.0 °F96 %29.57 in4.0 miNW (310°)4.6 mph0.00 inSnowLight Snow
4:53 AM33.1 °F32.0 °F96 %29.58 in7.0 miNW (320°)8.1 mph0.00 inSnowLight Snow
5:22 AM33.8 °F32.0 °F93 %29.57 in2.5 miNNW (330°)8.1 mph0.00 inSnowLight Snow
5:39 AM33.8 °F32.0 °F93 %29.57 in3.0 miNNW (330°)6.9 mph0.00 inSnowLight Snow
5:53 AM33.1 °F30.9 °F92 %29.60 in4.0 miNNW (330°)10.4 mph0.00 inSnowLight Snow
6:53 AM34.0 °F30.9 °F89 %29.62 in5.0 miNNW (340°)9.2 mph0.00 inSnowLight Snow
7:35 AM33.8 °F30.2 °F87 %29.61 in2.5 miNNW (340°)10.4 mph0.00 inSnowLight Snow
7:44 AM33.8 °F30.2 °F87 %29.61 in3.0 miNNW (340°)10.4 mph0.00 inSnowLight Snow
7:53 AM34.0 °F30.9 °F89 %29.64 in3.0 miNNW (340°)11.5 mph0.00 inSnowLight Snow
8:01 AM33.8 °F30.2 °F87 %29.62 in2.5 miNNW (330°)10.4 mph0.00 inSnowLight Snow
8:08 AM33.8 °F30.2 °F87 %29.62 in5.0 miNNW (340°)13.8 mph0.00 inSnowLight Snow
8:53 AM34.0 °F30.9 °F89 %29.67 in8.0 miNorth (350°)12.7 mph0.00 inOvercast
9:53 AM35.1 °F30.9 °F85 %29.69 in10.0 miNNW (340°)12.7 mph0.00 inOvercast
10:53 AM36.0 °F30.9 °F82 %29.71 in10.0 miNorth (350°)10.4 mphOvercast
11:29 AM35.6 °F32.0 °F87 %29.70 in7.0 miNorth (350°)9.2 mph19.6 mph0.00 inSnowLight Snow
11:40 AM35.6 °F30.2 °F81 %29.71 in9.0 miNorth (350°)10.4 mph0.00 inSnowLight Snow
11:53 AM36.0 °F30.0 °F79 %29.74 in10.0 miNorth (10°)13.8 mph0.00 inOvercast
12:53 PM36.0 °F30.0 °F79 %29.75 in10.0 miNorth (360°)10.4 mph24.2 mph0.00 inOvercast
1:53 PM37.0 °F28.0 °F70 %29.76 in10.0 miNorth (360°)18.4 mph25.3 mph0.00 inOvercast
2:00 PM35.6 °F28.4 °F75 %29.74 in10.0 miNorth (360°)15.0 mph24.2 mphOvercast
2:36 PM35.6 °F28.4 °F75 %29.76 in10.0 miNorth (360°)15.0 mph23.0 mphOvercast
2:51 PM35.6 °F26.6 °F70 %29.76 in10.0 miNorth (10°)13.8 mphOvercast
2:53 PM36.0 °F28.0 °F73 %29.79 in10.0 miNorth (360°)13.8 mphOvercast
3:53 PM35.1 °F28.0 °F76 %29.82 in10.0 miNorth (360°)11.5 mph19.6 mphOvercast
4:42 PM33.8 °F26.6 °F75 %29.81 in10.0 miNorth (350°)10.4 mphOvercast
4:53 PM34.0 °F27.0 °F75 %29.84 in10.0 miNorth (350°)9.2 mphOvercast
5:03 PM33.8 °F26.6 °F75 %29.82 in10.0 miNorth (350°)11.5 mph18.4 mphOvercast
5:53 PM33.1 °F27.0 °F78 %29.88 in9.0 miNorth (360°)11.5 mphOvercast
7:53 PM32.0 °F27.0 °F82 %29.93 in10.0 miNorth (360°)10.4 mphOvercast
8:08 PM32.0 °F28.4 °F87 %29.91 in10.0 miNorth (360°)11.5 mphOvercast
8:31 PM32.0 °F26.6 °F80 %29.91 in10.0 miNorth (350°)11.5 mphOvercast
8:53 PM30.9 °F27.0 °F85 %29.95 in10.0 miNNE (30°)8.1 mphOvercast
9:06 PM30.2 °F28.4 °F93 %29.93 in9.0 miNNE (30°)9.2 mphOvercast
9:53 PM30.9 °F26.1 °F82 %29.96 in10.0 miNNE (20°)12.7 mph19.6 mphOvercast
10:26 PM30.2 °F24.8 °F80 %29.94 in10.0 miNorth (10°)8.1 mphOvercast
10:53 PM30.9 °F25.0 °F79 %29.96 in10.0 miNorth (360°)8.1 mph17.3 mphOvercast
11:53 PM30.0 °F24.1 °F79 %29.97 in10.0 miNorth (10°)10.4 mphOvercast
Hourly data recorded from KARB, located miles away from Ann Arbor, Michigan







STORIES FROM OUR PARTNERS